Погода в Дербенте

Погода в Дербенте : погода сейчас, прогноз погоды и архив. Всё, что Вы хотите узнать о погоде в Дербенте!

Поиск расширенной информации на нашем сайте:

Другие новости

Новости СМИ2

Главная страница сайта

Новости сайта

02.10.2013

Напоминаем, что на нашем новом сайте вы можете получить высокодетализированные прогнозы погоды по пунктам России, СНГ и мира (включающие важные для авиации метеовеличины, такие как направление и скорость ветра, видимость, явления погоды, количество и форма облачности, нижняя и верхняя граница облачности), а также ознакомиться с разнообразными материалами по авиационной метеорологии и подборкой полезных ссылок на эту тему.

Сайт Метеоцентр.Азия посвящён разработке технологий оптимизации авиаметеорологического обслуживания, включая проектирование и перспективное создание нескольких автоматизированных авиаметеорологических систем:
- система выпуска высокодетальных прогностических карт явлений погоды для нижнего воздушного пространства по России и ближнему зарубежью;
- система верификации прогнозов TAF (выпускаемых синоптиками официальных АМСГ РФ и ближнего зарубежья) и AUTOTAF (выпускаемых сайтом Метеоцентр.Азия) - выявление ошибок, онлайн-сопоставление с фактической погодой METAR, автоматическое внесение коррективов в прогнозы при резком отклонении фактической погоды от прогноза, подсчёт оправдываемости прогнозов по элементам и в целом;
- система обработки, анализа и отображения авиаметеорологической информации для применения провайдерами метеорологической информации.

Рекомендуем: Смотрите описание зеркало с подсветкой на сайте.

Погода в Дербенте - сегодня

Время (UTC), дата Ветер
(°,м/с) 
Видим.   Явления Облачность Т
(°С)
Тd
(°С)
f(%) Тe
(°С)
Pmin
(гПа)
dP
(гПа)
Po
(мм)
O2
(г/м3)
Тmin Tmax R s Состояние
почвы
00 22.03.17 120 (ЮВ) 10 км    6/6 600 м 
[Sc]
+7 +1.8 69 +8  1014.3  0.6  762  299           
03 22.03.17 110 (В) 10 км    3/3 600 м 
[Sc]
+5 +2.1 81 +6  1015.8  0.6  764  302  +4.5         
06 22.03.17 130 (ЮВ) 20000 м    8/5 600 м средняя 
[Sc|Ac trans]
+9.1 +1.3 58 +10  1017.1  1.2  764  298           
09 22.03.17 120 (ЮВ) 20000 м    4/0 средняя 
[Ac trans]
+10.2 +4.5 68 +10  1016.4  -0.7  764  296           
12 22.03.17 070 (В) 20000 м    10/10 300 м кучево-дожд. 
[Cb cap]
+7.8 +3.8 76 +7  1015.6  -0.7  763  298           
15 22.03.17 310 (СЗ) 10 км    9/9 300 м кучево-дожд. 
[Cb cap]
+7.9 +3.8 75 +7  1016.7  1.1  764  299    +10.5       
18 22.03.17 330 (СЗ) 4{11}  10 км    10/10 300 м кучево-дожд. 
[Cb cap]
+6.7 +3.8 82 +5  1019.5  2.8  766  301           
21 22.03.17 290 (З) 10 км    6/0 средняя 
[Sc|Ac trans]
+6.7 +2.9 77 +7  1019.9  0.4  767  301           
00 23.03.17 140 (ЮВ) 10 км    8/0 средняя 
[Ac trans]
+6.2 +2 74 +7  1019.4  0.4  766  302           
03 23.03.17 160 (Ю) 10 км    4/0 средняя 
[Ac trans]
+5.6 +2.4 80 +6  1020.6  1.2  767  303  +5.6         
06 23.03.17 120 (ЮВ) 20000 м    8/4 600 м средняя, верхняя 
[Sc|Ac trans|Ci fib]
+8 +3.8 75 +8  1020.8  0.2  767  300  +5.5         
09 23.03.17 050 (СВ) 20000 м    9/9 600 м 
[Sc]
+8.1 +4.5 78 +7  1021.7  0.9  768  300           
12 23.03.17 320 (СЗ) 20000 м    10/10 600 м 
[Sc]
+4.9 +2.3 83 +4  1023.5  1.9  769  304           
15 23.03.17 340 (С) 10 км    10/10 600 м 
[Sc]
+4.3 +1.6 83 +3  1025.2  1.6  771  305    +9.4       
18 23.03.17 330 (СЗ) 10 км    10/10 300 м 
[St]
+4 +1.3 83 +3  1026.5  1.4  772  306           
21 23.03.17 290 (З) 10 км    10/10 300 м 
[St]
+3.9 +1.4 84 +3  1027.3  0.7  772  307           
00 24.03.17 350 (С) 4000 м  слаб. ливневой дождь  10/10 300 м кучево-дожд. 
[Cb cap]
+3.8 +1.9 87 +5  1027  -0.3  772  307           
03 24.03.17 тихо ()   10 км  {ливн. осадки}  10/10 300 м кучево-дожд. 
[Cb cap]
+4.1 +2 86 +4  1027.7  0.7  773  306  +3.8    0.5     
06 24.03.17 020 (С) 20000 м  {ливн. осадки}  9/9 300 м кучево-дожд. 
[Cb cap]
+5.5 +1.9 78 +5  1029.3  1.6  774  305           
09 24.03.17 060 (СВ) 20000 м    10/10 600 м 
[Sc]
+6.1 +1.3 71 +6  1028.7  -0.6  773  305           
12 24.03.17 120 (ЮВ) 20000 м    6/4 600 м средняя 
[Sc|Ac trans]
+7.2 +1.6 68 +7  1027.4  -1.3  772  303           
15 24.03.17 180 (Ю) 20000 м    8/4 600 м средняя 
[Sc|Ac trans]
+7.3 +1.2 65 +7  1027.4  772  303    +7.4       
18 24.03.17 150 (ЮВ) 10 км    ясно 
+5.1 +1.6 78 +5  1027  -0.4  772  305           
21 24.03.17 160 (Ю) 10 км    ясно 
+3.6 +1 83 +3  1024.8  -2.2  770  306           
00 25.03.17 170 (Ю) 10 км    ясно 
+4.6 +1.6 81 +3  1022.6  -2.2  769  304           
Время (UTC), дата Ветер
(°,м/с) 
Видим.   Явления Облачность Т
(°С)
Тd
(°С)
f(%) Тe
(°С)
Pmin
(гПа)
dP
(гПа)
Po
(мм)
O2
(г/м3)
Тmin Tmax R s Состояние
почвы

Для получения пояснительной информации подведите курсор к названию столбца.

ПОГОДА в Дербенте - архив

Всё, что Вы хотите узнать о погоде в Дербенте - удобно и подробно!

Выберите нужную дату (начиная с 1 января 2015* года) и нажмите кнопку "Найти".
Будут отображены архивные сводки погоды по пункту Дербент, начиная с указанной даты.


Отображать данные в формате CSV (для использования в таблицах Excel)


Внимание! Наш архив погоды предназначен исключительно для личного некоммерческого использования в познавательных целях. Если Вам необходимы официальные справки о состоянии погоды (для производственных, юридических, коммерческих и т.п. целей), обращайтесь в органы Росгидромета.

*Примечание: данная дата относится к архиву по метеостанциям СССР (Россия, СНГ, Балтия).
Архив по метеостанциям Зарубежной Европы и Азии (кроме Китая) хранится 10 дней, по другим регионам земного шара (Китай, Африка, Америка, Австралия, Океания) - 1 день.

Дербент - район местоположения метеостанции


Название, широта, долгота, высота метеостанции:
Дербент 42.1°ш. 48.3°д. -19 м над ур. моря [Российская Федерация]

Дополнительная информация

В oтличие oт бoльшинства пoгoдных сайтoв мы публикуем пoдрoбную метеoинфoрмацию в детальнoм прoфессиoнальнoм фoрмате.

Характеристики температуры и влажнoсти вoздуха измеряются на высoте 2 м в тени вдали oт зданий и деревьев.
Скoрoсть ветра измеряется на высoте 10 м (на урoвне рoста челoвека скoрoсть ветра ниже в 1.5-2 раза). Если метеoстанция нахoдится в гoрoде или в лесу, тo скoрoсть ветра занижена на 2-4 м/с пo сравнению с oткрытым местoм. Скoрoсть ветра над акватoриями крупных рек и oзёр, а также на вершинах хoлмoв на 2-5 м/с выше, чем в oбычных услoвиях.
Атмoсфернoе давление в разных тoчках местнoсти мoжет значительнo oтличаться oт давления на метеoстанции, в зависимoсти oт услoвий рельефа (при пoдъёме на 10 м давление пoнижается примернo на 1 мм рт.ст.).